Knob Noster, MO

11:00 AM CDT on August 25, 2016 (GMT -0500)
Whiteman Air Force Base

Weather History for KSZL - March, 2013

Change the Weather History Date:

Sunday, March 24, 2013

  Actual Average Record
Temperature  
Mean Temperature 30 °F -  
Max Temperature 33 °F 56 °F 80 °F (2003)
Min Temperature 25 °F 36 °F 25 °F (2008)
Degree Days  
Heating Degree Days 35    
Moisture  
Dew Point 30 °F    
Average Humidity 97    
Maximum Humidity 100    
Minimum Humidity 84    
Precipitation  
Precipitation 0.39 in - - ()
Snow  
Snow 0.00 in - - ()
Snow Depth 4.00 in    
Sea Level Pressure  
Sea Level Pressure 29.84 in    
Wind  
Wind Speed 19 mph (North)    
Max Wind Speed 26 mph    
Max Gust Speed 34 mph    
Visibility 4 miles    
Events Fog , Rain , Snow    
Averages and records for this station are not official NWS values.
T = Trace of Precipitation, MM = Missing Value Source: NWS Daily Summary

Daily Weather History Graph

Daily Weather History Graph

Search for Another Location

Airport or City:

Trip Planner

Search our weather history database for the weather conditions in past years. The results will help you decide how hot, cold, wet, or windy it might be!

Date:

Astronomy

Mar. 24, 2013 Rise Set
Actual Time 7:10 AM CDT 7:30 PM CDT
Civil Twilight 6:44 AM CDT 7:56 PM CDT
Nautical Twilight 6:13 AM CDT 8:28 PM CDT
Astronomical Twilight 5:41 AM CDT 9:00 PM CDT
Moon 5:00 PM CDT (3/24) 5:20 AM CDT (3/24)
Length of Visible Light 13h 12m
Length of Day
12h 19m
Waxing Gibbous, 92% of the Moon is Illuminated
Mar 24
Waxing Gibbous
Mar 27
Full
Apr 2
Last Quarter
Apr 10
New
Apr 18
First Quarter

Hourly Weather History & Observations

Time (CDT) Temp. Windchill Dew Point Humidity Pressure Visibility Wind Dir Wind Speed Gust Speed Precip Events Conditions
12:58 AM 32.0 °F 20.1 °F 32.0 °F 100% 29.85 in 10.0 mi NE 19.6 mph - 0.01 in Snow Light Snow
1:20 AM 32.0 °F 21.2 °F 32.0 °F 100% 29.84 in 10.0 mi NNE 16.1 mph - N/A   Overcast
1:58 AM 33.1 °F 21.9 °F 33.1 °F 100% 29.83 in 10.0 mi NE 18.4 mph - 0.00 in Snow Light Snow
2:58 AM 32.9 °F 22.8 °F 32.9 °F 100% 29.83 in 3.0 mi NE 15.0 mph - 0.01 in Snow Light Snow
3:15 AM 32.0 °F 21.2 °F 32.0 °F 100% 29.78 in 2.5 mi NE 16.1 mph - N/A Snow Light Snow
3:35 AM 32.0 °F 20.5 °F 32.0 °F 100% 29.75 in 3.0 mi NE 18.4 mph - N/A Snow Light Snow
3:47 AM 32.0 °F 20.8 °F 32.0 °F 100% 29.74 in 2.5 mi NNE 17.3 mph 23.0 mph N/A Snow Light Snow
3:58 AM 32.5 °F 21.9 °F 32.5 °F 100% 29.76 in 2.0 mi NNE 16.1 mph - 0.01 in Snow Light Snow
4:28 AM 32.0 °F 21.2 °F 32.0 °F 100% 29.72 in 3.0 mi NE 16.1 mph - N/A Snow Light Snow
4:38 AM 32.0 °F 20.8 °F 32.0 °F 100% 29.70 in 2.5 mi NE 17.3 mph 24.2 mph N/A Snow Light Snow
4:58 AM 32.4 °F 20.9 °F 32.4 °F 100% 29.73 in 1.2 mi NNE 18.4 mph - 0.01 in Snow Light Snow
5:02 AM 32.0 °F 20.5 °F 32.0 °F 100% 29.70 in 1.5 mi NNE 18.4 mph - N/A Snow Light Snow
5:14 AM 32.0 °F 20.5 °F 32.0 °F 100% 29.70 in 1.2 mi NNE 18.4 mph 25.3 mph N/A Snow Light Snow
5:16 AM 32.0 °F 20.5 °F 32.0 °F 100% 29.70 in 1.2 mi NNE 18.4 mph 25.3 mph N/A Rain Light Freezing Rain
5:29 AM 32.0 °F 21.2 °F 32.0 °F 100% 29.74 in 1.2 mi NNE 16.1 mph - N/A Snow Light Snow
5:58 AM 32.2 °F 21.4 °F 32.2 °F 100% 29.78 in 2.0 mi North 16.1 mph - 0.02 in Snow Light Snow
6:03 AM 32.0 °F 21.2 °F 32.0 °F 100% 29.75 in 1.2 mi North 16.1 mph - N/A Snow Light Snow
6:09 AM 32.0 °F 20.1 °F 32.0 °F 100% 29.76 in 1.0 mi North 19.6 mph - N/A Snow Light Snow
6:22 AM 32.0 °F 20.5 °F 32.0 °F 100% 29.75 in 1.2 mi North 18.4 mph - N/A Snow Light Snow
6:40 AM 32.0 °F 18.6 °F 32.0 °F 100% 29.75 in 0.8 mi North 25.3 mph - N/A   Overcast
6:45 AM 32.0 °F 19.2 °F 32.0 °F 100% 29.75 in 1.0 mi North 23.0 mph 31.1 mph N/A   Overcast
6:50 AM 32.0 °F 18.4 °F 32.0 °F 100% 29.75 in 1.0 mi North 26.5 mph 34.5 mph N/A   Overcast
6:58 AM 32.0 °F 18.6 °F 32.0 °F 100% 29.78 in 0.5 mi North 25.3 mph 33.4 mph N/A Snow Snow
7:58 AM 30.0 °F 16.0 °F 30.0 °F 100% 29.79 in 0.2 mi North 25.3 mph 33.4 mph 0.20 in Fog , Snow Light Freezing Fog
8:58 AM 29.8 °F 15.7 °F 29.8 °F 100% 29.81 in 0.2 mi North 25.3 mph 32.2 mph 0.05 in Fog , Snow Light Freezing Fog
9:58 AM 30.0 °F 17.5 °F 30.0 °F 100% 29.82 in 0.8 mi North 19.6 mph 28.8 mph 0.07 in Snow Light Snow
10:58 AM 30.6 °F 17.6 °F 30.6 °F 100% 29.83 in 1.5 mi North 21.9 mph 28.8 mph 0.00 in Snow Light Snow
11:58 AM 30.7 °F 17.5 °F 30.6 °F 99% 29.85 in 2.0 mi NNW 23.0 mph 32.2 mph 0.00 in Snow Light Snow
12:58 PM 30.7 °F 18.5 °F 30.6 °F 99% 29.86 in 2.0 mi NNW 19.6 mph 31.1 mph 0.00 in Snow Light Snow
1:58 PM 30.9 °F 18.4 °F 30.6 °F 99% 29.88 in 2.5 mi NNW 20.7 mph 28.8 mph 0.01 in Snow Light Snow
2:58 PM 30.7 °F 18.8 °F 30.6 °F 99% 29.89 in 3.0 mi NNW 18.4 mph 28.8 mph 0.00 in Snow Light Snow
3:55 PM 30.6 °F 19.4 °F 30.2 °F 99% 29.91 in 2.0 mi NNW 16.1 mph 28.8 mph 0.00 in Snow Light Snow
4:55 PM 30.2 °F 17.8 °F 29.8 °F 99% 29.93 in 2.0 mi NNW 19.6 mph 28.8 mph 0.00 in Snow Light Snow
5:55 PM 30.2 °F 17.8 °F 30.2 °F 100% 29.92 in 7.0 mi NW 19.6 mph 28.8 mph N/A   Overcast
6:55 PM 30.4 °F 18.0 °F 27.9 °F 90% 29.98 in 10.0 mi WNW 19.6 mph - N/A   Overcast
6:58 PM 30.4 °F 19.5 °F 27.9 °F 90% 29.95 in 10.0 mi WNW 15.0 mph - N/A   Overcast
7:48 PM 30.2 °F 19.3 °F 26.6 °F 86% 29.97 in 10.0 mi WNW 15.0 mph 25.3 mph N/A   Overcast
7:58 PM 29.7 °F 17.8 °F 26.2 °F 87% 29.97 in 10.0 mi WNW 17.3 mph 24.2 mph N/A   Overcast
8:03 PM 30.2 °F 18.5 °F 26.6 °F 86% 29.98 in 10.0 mi WNW 17.3 mph 24.2 mph N/A   Overcast
8:28 PM 28.4 °F 15.1 °F 26.6 °F 93% 29.98 in 10.0 mi WNW 20.7 mph - N/A   Overcast
8:58 PM 28.9 °F 17.3 °F 25.3 °F 86% 29.98 in 10.0 mi WNW 16.1 mph 26.5 mph N/A   Overcast
9:58 PM 28.4 °F 16.6 °F 24.8 °F 86% 30.01 in 10.0 mi WNW 16.1 mph 24.2 mph N/A   Overcast
10:58 PM 27.5 °F 15.0 °F 23.4 °F 84% 30.01 in 10.0 mi WNW 17.3 mph 25.3 mph N/A   Overcast
11:58 PM 25.9 °F 13.8 °F 21.7 °F 84% 30.02 in 10.0 mi WNW 15.0 mph - N/A   Mostly Cloudy